| time (UTC) | temp F | wind direction | speed knots | gust knots | rain 1hr in | rain 24hr in | rain mn in | humidity % | barometer mb |
| 20260510050203 | 50 | 292 | 0.0 | 0.0 | 0.00 | 0.10 | 0.00 | 92 | 1007.5 |
| 20260510045203 | 50 | 292 | 0.0 | 1.7 | 0.00 | 0.10 | 0.00 | 92 | 1007.2 |
| 20260510044205 | 50 | 296 | 0.9 | 3.5 | 0.00 | 0.10 | 0.00 | 91 | 1007.7 |
| 20260510043202 | 50 | 216 | 0.9 | 2.6 | 0.00 | 0.10 | 0.00 | 91 | 1007.3 |
| 20260510042224 | 50 | 217 | 0.0 | 0.0 | 0.00 | 0.10 | 0.00 | 91 | 1006.9 |
| 20260510041202 | 50 | 217 | 0.0 | 0.0 | 0.00 | 0.10 | 0.00 | 91 | 1006.6 |
| 20260510040203 | 51 | 217 | 0.0 | 0.9 | 0.00 | 0.10 | 0.00 | 91 | 1006.3 |
| 20260510035202 | 51 | 216 | 0.0 | 2.6 | 0.00 | 0.10 | 0.10 | 91 | 1006.4 |
| 20260510034203 | 51 | 216 | 0.0 | 6.1 | 0.00 | 0.10 | 0.10 | 91 | 1006.3 |
| 20260510033202 | 51 | 280 | 0.0 | 1.7 | 0.00 | 0.10 | 0.10 | 91 | 1006.5 |
| 20260510032205 | 51 | 279 | 0.0 | 1.7 | 0.00 | 0.10 | 0.10 | 91 | 1006.5 |
| 20260510031202 | 51 | 280 | 0.0 | 0.0 | 0.00 | 0.10 | 0.10 | 91 | 1006.4 |
| 20260510030202 | 51 | 279 | 0.0 | 1.7 | 0.00 | 0.10 | 0.10 | 91 | 1006.5 |
| 20260510025202 | 50 | 280 | 0.0 | 2.6 | 0.00 | 0.10 | 0.10 | 90 | 1006.3 |
| 20260510023223 | 51 | 280 | 0.0 | 0.0 | 0.00 | 0.10 | 0.10 | 90 | 1006.1 |
| 20260510022202 | 52 | 280 | 0.0 | 1.7 | 0.00 | 0.10 | 0.10 | 90 | 1005.8 |
| 20260510021202 | 52 | 303 | 0.0 | 4.3 | 0.00 | 0.10 | 0.10 | 90 | 1005.7 |
| 20260510020203 | 52 | 163 | 0.0 | 4.3 | 0.00 | 0.10 | 0.10 | 90 | 1005.8 |
| 20260510015202 | 52 | 261 | 0.0 | 3.5 | 0.00 | 0.10 | 0.10 | 90 | 1005.8 |
| 20260510014206 | 52 | 242 | 0.0 | 2.6 | 0.00 | 0.10 | 0.10 | 90 | 1005.6 |
| 20260510013202 | 52 | 242 | 0.9 | 3.5 | 0.00 | 0.10 | 0.10 | 90 | 1005.6 |
| 20260510012202 | 51 | 249 | 0.0 | 2.6 | 0.00 | 0.10 | 0.10 | 90 | 1005.5 |
| 20260510011202 | 51 | 198 | 2.6 | 4.3 | 0.00 | 0.10 | 0.10 | 90 | 1005.4 |
| 20260510010224 | 51 | 181 | 0.0 | 1.7 | 0.00 | 0.10 | 0.10 | 90 | 1005.4 |
| 20260510005203 | 51 | 182 | 0.0 | 1.7 | 0.00 | 0.10 | 0.10 | 90 | 1005.1 |
| 20260510004202 | 52 | 181 | 0.0 | 1.7 | 0.00 | 0.10 | 0.10 | 90 | 1004.7 |
| 20260510003203 | 52 | 181 | 0.0 | 2.6 | 0.00 | 0.10 | 0.10 | 89 | 1004.7 |
| 20260510002202 | 52 | 220 | 0.9 | 3.5 | 0.00 | 0.10 | 0.10 | 89 | 1004.8 |
| 20260510001225 | 52 | 221 | 0.0 | 2.6 | 0.00 | 0.10 | 0.10 | 89 | 1004.7 |
| 20260510000204 | 52 | 220 | 1.7 | 2.6 | 0.00 | 0.10 | 0.10 | 88 | 1004.8 |
| 20260509235202 | 52 | 212 | 2.6 | 5.2 | 0.08 | 0.10 | 0.10 | 88 | 1004.4 |
| 20260509234202 | 52 | 281 | 0.0 | 2.6 | 0.08 | 0.10 | 0.10 | 87 | 1004.5 |
| 20260509233203 | 52 | 285 | 1.7 | 10.4 | 0.06 | 0.08 | 0.08 | 86 | 1005.2 |
| 20260509232203 | 53 | 299 | 6.1 | 13.9 | 0.04 | 0.06 | 0.06 | 84 | 1005.3 |
| 20260509231202 | 54 | 289 | 4.3 | 14.8 | 0.02 | 0.04 | 0.04 | 82 | 1005.4 |
| 20260509230203 | 57 | 267 | 8.7 | 26.1 | 0.01 | 0.03 | 0.03 | 77 | 1005.8 |
| 20260509225203 | 61 | 242 | 2.6 | 8.7 | 0.00 | 0.00 | 0.00 | 74 | 1003.8 |
| 20260509224204 | 61 | 213 | 0.0 | 0.0 | 0.00 | 0.00 | 0.00 | 72 | 1002.9 |
| 20260509223202 | 62 | 213 | 0.0 | 0.0 | 0.00 | 0.00 | 0.00 | 72 | 1002.6 |
| 20260509222202 | 62 | 213 | 0.0 | 0.0 | 0.00 | 0.00 | 0.00 | 70 | 1002.4 |
| 20260509221202 | 62 | 213 | 0.0 | 0.0 | 0.00 | 0.00 | 0.00 | 71 | 1002.5 |
| 20260509220202 | 62 | 223 | 0.0 | 0.0 | 0.00 | 0.00 | 0.00 | 70 | 1002.6 |
| 20260509215224 | 62 | 223 | 0.0 | 0.0 | 0.00 | 0.00 | 0.00 | 70 | 1002.9 |
| 20260509214203 | 62 | 223 | 0.0 | 2.6 | 0.00 | 0.00 | 0.00 | 70 | 1002.9 |
| 20260509213203 | 62 | 224 | 1.7 | 2.6 | 0.00 | 0.00 | 0.00 | 70 | 1002.7 |
| 20260509212202 | 62 | 225 | 0.0 | 2.6 | 0.00 | 0.00 | 0.00 | 70 | 1002.8 |
| 20260509211203 | 62 | 211 | 2.6 | 7.0 | 0.00 | 0.00 | 0.00 | 69 | 1003.3 |
| 20260509210202 | 63 | 246 | 1.7 | 2.6 | 0.00 | 0.00 | 0.00 | 71 | 1003.3 |
| 20260509205202 | 63 | 223 | 1.7 | 5.2 | 0.00 | 0.00 | 0.00 | 71 | 1003.3 |
| 20260509204225 | 63 | 205 | 0.9 | 3.5 | 0.00 | 0.00 | 0.00 | 71 | 1003.4 |
| 20260509203202 | 63 | 252 | 1.7 | 7.8 | 0.00 | 0.00 | 0.00 | 70 | 1003.3 |
| 20260509202203 | 63 | 220 | 1.7 | 6.1 | 0.00 | 0.00 | 0.00 | 68 | 1003.5 |
| 20260509201223 | 64 | 245 | 1.7 | 4.3 | 0.00 | 0.00 | 0.00 | 68 | 1003.5 |
| 20260509200202 | 64 | 254 | 2.6 | 7.0 | 0.00 | 0.00 | 0.00 | 67 | 1003.6 |
| 20260509195202 | 65 | 203 | 2.6 | 6.1 | 0.00 | 0.00 | 0.00 | 65 | 1003.7 |
| 20260509194202 | 65 | 256 | 2.6 | 7.0 | 0.00 | 0.00 | 0.00 | 67 | 1003.5 |
| 20260509193202 | 65 | 220 | 3.5 | 10.4 | 0.00 | 0.00 | 0.00 | 67 | 1003.8 |
| 20260509192203 | 65 | 268 | 3.5 | 11.3 | 0.00 | 0.00 | 0.00 | 69 | 1004.0 |
| 20260509191223 | 64 | 291 | 5.2 | 11.3 | 0.00 | 0.00 | 0.00 | 68 | 1004.2 |
| 20260509190202 | 64 | 209 | 2.6 | 7.0 | 0.00 | 0.00 | 0.00 | 67 | 1004.4 |
| 20260509185202 | 64 | 218 | 2.6 | 7.8 | 0.00 | 0.00 | 0.00 | 68 | 1004.5 |
| 20260509184203 | 65 | 269 | 4.3 | 10.4 | 0.00 | 0.00 | 0.00 | 69 | 1004.6 |
| 20260509183203 | 64 | 207 | 1.7 | 6.1 | 0.00 | 0.00 | 0.00 | 69 | 1004.5 |
| 20260509182203 | 64 | 211 | 1.7 | 8.7 | 0.00 | 0.00 | 0.00 | 69 | 1004.7 |
| 20260509181202 | 64 | 225 | 3.5 | 7.0 | 0.00 | 0.00 | 0.00 | 72 | 1004.7 |
| 20260509180202 | 63 | 307 | 1.7 | 7.8 | 0.00 | 0.00 | 0.00 | 71 | 1004.7 |
| 20260509175203 | 63 | 255 | 2.6 | 5.2 | 0.00 | 0.00 | 0.00 | 71 | 1005.0 |
| 20260509174202 | 62 | 241 | 1.7 | 10.4 | 0.00 | 0.00 | 0.00 | 70 | 1005.1 |
| 20260509173202 | 63 | 247 | 2.6 | 12.2 | 0.00 | 0.00 | 0.00 | 69 | 1005.4 |
| 20260509172202 | 62 | 182 | 1.7 | 11.3 | 0.00 | 0.00 | 0.00 | 72 | 1005.4 |
| 20260509171202 | 62 | 198 | 3.5 | 9.6 | 0.00 | 0.00 | 0.00 | 69 | 1005.4 |
| 20260509170202 | 61 | 266 | 3.5 | 7.8 | 0.00 | 0.00 | 0.00 | 70 | 1005.5 |
| 20260509165202 | 62 | 193 | 3.5 | 7.8 | 0.00 | 0.00 | 0.00 | 72 | 1005.6 |
| 20260509164202 | 61 | 262 | 1.7 | 8.7 | 0.00 | 0.00 | 0.00 | 74 | 1005.7 |
| 20260509163223 | 60 | 293 | 3.5 | 11.3 | 0.00 | 0.00 | 0.00 | 74 | 1005.9 |
| 20260509162203 | 60 | 211 | 2.6 | 6.1 | 0.00 | 0.00 | 0.00 | 73 | 1006.1 |
| 20260509161203 | 60 | 293 | 1.7 | 7.8 | 0.00 | 0.00 | 0.00 | 74 | 1006.1 |
| 20260509160202 | 59 | 231 | 1.7 | 6.1 | 0.00 | 0.00 | 0.00 | 75 | 1006.1 |
| 20260509155205 | 59 | 240 | 2.6 | 6.1 | 0.00 | 0.00 | 0.00 | 75 | 1006.1 |
| 20260509154204 | 59 | 209 | 2.6 | 6.1 | 0.00 | 0.00 | 0.00 | 75 | 1006.3 |
| 20260509153202 | 59 | 214 | 1.7 | 5.2 | 0.00 | 0.00 | 0.00 | 77 | 1006.3 |
| 20260509152244 | 58 | 244 | 1.7 | 7.0 | 0.00 | 0.00 | 0.00 | 78 | 1006.3 |
| 20260509151203 | 58 | 225 | 0.9 | 5.2 | 0.00 | 0.00 | 0.00 | 77 | 1006.4 |
| 20260509150203 | 58 | 189 | 0.9 | 4.3 | 0.00 | 0.00 | 0.00 | 78 | 1006.5 |
| 20260509145203 | 57 | 168 | 0.0 | 4.3 | 0.00 | 0.00 | 0.00 | 79 | 1006.4 |
| 20260509144203 | 57 | 298 | 1.7 | 5.2 | 0.00 | 0.00 | 0.00 | 79 | 1006.4 |
| 20260509143202 | 57 | 272 | 2.6 | 5.2 | 0.00 | 0.00 | 0.00 | 80 | 1006.5 |
| 20260509142203 | 56 | 180 | 1.7 | 4.3 | 0.00 | 0.00 | 0.00 | 82 | 1006.6 |
| 20260509141227 | 56 | 197 | 0.9 | 5.2 | 0.00 | 0.00 | 0.00 | 82 | 1006.7 |
| 20260509140202 | 56 | 197 | 0.9 | 4.3 | 0.00 | 0.00 | 0.00 | 83 | 1006.8 |
| 20260509135202 | 55 | 222 | 0.9 | 3.5 | 0.00 | 0.00 | 0.00 | 83 | 1006.8 |
| 20260509134202 | 55 | 252 | 1.7 | 3.5 | 0.00 | 0.00 | 0.00 | 84 | 1006.9 |
| 20260509133204 | 55 | 207 | 2.6 | 5.2 | 0.00 | 0.00 | 0.00 | 84 | 1006.9 |
| 20260509132203 | 55 | 204 | 0.9 | 6.1 | 0.00 | 0.00 | 0.00 | 85 | 1006.9 |
| 20260509131204 | 54 | 238 | 0.0 | 0.9 | 0.00 | 0.00 | 0.00 | 86 | 1007.0 |
| 20260509130225 | 53 | 199 | 0.0 | 0.0 | 0.00 | 0.00 | 0.00 | 86 | 1006.9 |
| 20260509125202 | 52 | 200 | 0.0 | 0.0 | 0.00 | 0.00 | 0.00 | 87 | 1007.0 |
| 20260509124204 | 52 | 190 | 0.0 | 1.7 | 0.00 | 0.00 | 0.00 | 88 | 1007.2 |
| 20260509123203 | 51 | 175 | 0.9 | 3.5 | 0.00 | 0.00 | 0.00 | 88 | 1007.2 |
| 20260509122202 | 50 | 197 | 0.0 | 0.0 | 0.00 | 0.00 | 0.00 | 89 | 1007.3 |
| 20260509121202 | 50 | 246 | 0.0 | 0.9 | 0.00 | 0.00 | 0.00 | 90 | 1007.4 |
| 20260509120202 | 49 | 258 | 0.0 | 0.9 | 0.00 | 0.01 | 0.00 | 90 | 1007.6 |
| 20260509115223 | 47 | 267 | 0.0 | 0.9 | 0.00 | 0.01 | 0.00 | 90 | 1007.4 |
| 20260509114224 | 46 | 283 | 0.0 | 0.0 | 0.00 | 0.01 | 0.00 | 90 | 1007.4 |
| 20260509113225 | 44 | 283 | 0.0 | 0.0 | 0.00 | 0.02 | 0.00 | 89 | 1007.4 |
| 20260509112203 | 43 | 283 | 0.0 | 0.9 | 0.00 | 0.04 | 0.00 | 89 | 1007.3 |
| 20260509111224 | 42 | 248 | 0.0 | 0.0 | 0.00 | 0.05 | 0.00 | 89 | 1007.5 |
| 20260509110202 | 42 | 248 | 0.0 | 0.0 | 0.00 | 0.07 | 0.00 | 88 | 1007.6 |
| 20260509105204 | 41 | 232 | 0.0 | 0.0 | 0.00 | 0.07 | 0.00 | 88 | 1007.7 |
| 20260509104223 | 40 | 232 | 0.0 | 0.0 | 0.00 | 0.07 | 0.00 | 87 | 1007.8 |
| 20260509103203 | 40 | 232 | 0.0 | 0.0 | 0.00 | 0.08 | 0.00 | 87 | 1007.6 |
| 20260509102202 | 40 | 232 | 0.0 | 0.0 | 0.00 | 0.08 | 0.00 | 86 | 1007.6 |
| 20260509101203 | 40 | 232 | 0.0 | 0.0 | 0.00 | 0.08 | 0.00 | 86 | 1007.6 |
| 20260509100202 | 40 | 232 | 0.0 | 0.0 | 0.00 | 0.08 | 0.00 | 86 | 1007.4 |
| 20260509095225 | 40 | 232 | 0.0 | 0.0 | 0.00 | 0.09 | 0.00 | 85 | 1007.5 |
| 20260509094202 | 40 | 232 | 0.0 | 0.0 | 0.00 | 0.09 | 0.00 | 85 | 1007.6 |
| 20260509093202 | 40 | 232 | 0.0 | 0.0 | 0.00 | 0.09 | 0.00 | 85 | 1007.5 |
| 20260509092202 | 40 | 232 | 0.0 | 0.0 | 0.00 | 0.09 | 0.00 | 85 | 1007.6 |
| 20260509091204 | 40 | 232 | 0.0 | 0.0 | 0.00 | 0.09 | 0.00 | 84 | 1007.5 |
| 20260509090226 | 40 | 232 | 0.0 | 0.0 | 0.00 | 0.09 | 0.00 | 84 | 1007.7 |
| 20260509085203 | 40 | 232 | 0.0 | 0.0 | 0.00 | 0.09 | 0.00 | 84 | 1007.7 |
| 20260509083223 | 41 | 232 | 0.0 | 0.0 | 0.00 | 0.09 | 0.00 | 84 | 1007.8 |
| 20260509082226 | 41 | 232 | 0.0 | 0.0 | 0.00 | 0.09 | 0.00 | 84 | 1007.8 |
| 20260509081224 | 40 | 232 | 0.0 | 0.0 | 0.00 | 0.09 | 0.00 | 84 | 1007.8 |
| 20260509075203 | 40 | 232 | 0.0 | 0.0 | 0.00 | 0.09 | 0.00 | 83 | 1007.9 |
| 20260509074202 | 40 | 232 | 0.0 | 0.0 | 0.00 | 0.09 | 0.00 | 83 | 1008.1 |
| 20260509073204 | 40 | 232 | 0.0 | 0.0 | 0.00 | 0.09 | 0.00 | 83 | 1008.1 |
| 20260509072203 | 39 | 232 | 0.0 | 0.0 | 0.00 | 0.09 | 0.00 | 83 | 1008.2 |
| 20260509071203 | 39 | 232 | 0.0 | 0.0 | 0.00 | 0.09 | 0.00 | 83 | 1008.3 |
| 20260509070202 | 39 | 232 | 0.0 | 0.0 | 0.00 | 0.09 | 0.00 | 82 | 1008.3 |
| 20260509065202 | 39 | 232 | 0.0 | 0.0 | 0.00 | 0.09 | 0.00 | 82 | 1008.4 |
| 20260509064202 | 39 | 232 | 0.0 | 0.0 | 0.00 | 0.09 | 0.00 | 82 | 1008.6 |
| 20260509063202 | 39 | 232 | 0.0 | 0.0 | 0.00 | 0.09 | 0.00 | 82 | 1008.7 |
| 20260509062225 | 39 | 232 | 0.0 | 0.0 | 0.00 | 0.09 | 0.00 | 81 | 1008.8 |
| 20260509061224 | 39 | 232 | 0.0 | 0.0 | 0.00 | 0.09 | 0.00 | 82 | 1008.9 |
| 20260509060204 | 39 | 232 | 0.0 | 0.0 | 0.00 | 0.09 | 0.00 | 81 | 1009.2 |
| 20260509055203 | 39 | 232 | 0.0 | 0.0 | 0.00 | 0.09 | 0.00 | 81 | 1009.3 |
| 20260509054203 | 39 | 232 | 0.0 | 0.0 | 0.00 | 0.09 | 0.00 | 80 | 1009.4 |
| 20260509053225 | 40 | 232 | 0.0 | 0.0 | 0.00 | 0.09 | 0.00 | 80 | 1009.4 |
| 20260509052202 | 40 | 232 | 0.0 | 0.0 | 0.00 | 0.09 | 0.00 | 79 | 1009.4 |
| 20260509051203 | 40 | 232 | 0.0 | 0.0 | 0.00 | 0.09 | 0.00 | 79 | 1009.6 |